Regional Weather Roundup
Issued by NWS

Home | Current Version | Previous Version | Text Only | Print | Product List | Glossary On
Versions: 1 2 3 4 5 6 7 8 9 10 11 12 13 14 15 16 17 18 19 20 21 22 23 24 25 26 27
000
ASUS43 KMPX 100710
RWRMN
WEATHER ROUNDUP FOR MINNESOTA
NATIONAL WEATHER SERVICE TWIN CITIES/CHANHASSEN MN
200 AM CDT MON MAY 10 2021


NOTE: "FAIR" INDICATES FEW OR NO CLOUDS BELOW 12,000 FEET WITH NO
SIGNIFICANT WEATHER AND/OR OBSTRUCTIONS TO VISIBILITY. N/A MEANS
CURRENT SKY AND/OR WEATHER CONDITIONS ARE NOT AVAILABLE.

MNZ060>063-068>070-100800-
   Twin Cities Metro

CITY           SKY/WX    TMP DP  RH WIND       PRES   REMARKS
TWIN CITIES    MOCLDY    45  26  47 NE9       30.13R
ST PAUL        CLOUDY    45  27  49 E3        30.14R
CRYSTAL        CLOUDY    43  27  53 NE6       30.13R
BLAINE         CLOUDY    45  27  49 NE7       30.14R
LAKEVILLE      PTCLDY    43  25  49 NE7       30.11S
EDEN PRAIRIE   PTCLDY    45  27  49 NE9       30.11R
SOUTH ST PAUL  MOCLDY    45  26  47 E5        30.13R
$$
MNZ001>005-007-008-013>017-022>024-027-028-100800-
   Northwest Minnesota

CITY           SKY/WX    TMP DP  RH WIND       PRES   REMARKS
BEMIDJI        CLOUDY    34  23  64 N3        30.21S
HALLOCK        CLOUDY    37  23  56 N6        30.26S
ROSEAU           N/A     43 N/A N/A N5        30.26S
WARROAD        CLOUDY    43  28  56 NE8       30.26S
THIEF RVR FALL MOCLDY    37  23  56 NE7       30.25R
CROOKSTON      CLEAR     34  19  55 NE6       30.24S WCI  29
FOSSTON        CLEAR     32  19  59 NE3       30.22S
DETROIT LAKES  CLEAR     39  23  52 NE7       30.19R
MOORHEAD       CLEAR     37  19  48 NE6       30.21R
PARK RAPIDS    CLOUDY    42  23  46 NE5       30.18S
MAHNOMEN       FAIR      30  22  71 NE7       30.21S WCI  24
$$
MNZ006-009>011-018-025>026-100800-
   North Central Minnesota

CITY           SKY/WX    TMP DP  RH WIND       PRES   REMARKS
BAUDETTE       CLOUDY    38  25  59 NE7       30.24S
FLAG ISLAND    CLOUDY    41  27  56 NE8       30.26S
INTL FALLS     CLOUDY    40  24  53 NE6       30.22S
WASKISH        CLOUDY    36  23  60 NE3       30.23S
BIG FORK       PTCLDY    34  23  64 CALM      30.25S
LONGVILLE        N/A     37  23  56 CALM      30.18S
GRAND RAPIDS   CLOUDY    39  23  52 N5        30.20S
CRANE LAKE     CLOUDY    36  27  69 CALM      30.23F
ORR            CLOUDY    32  23  69 CALM      30.18F
COOK           MOCLDY    32  25  74 CALM      30.19S
WALKER         CLOUDY    40  23  50 NE7       30.19S
$$
MNZ012-019>021-037-100800-
   Northeast Minnesota

CITY           SKY/WX    TMP DP  RH WIND       PRES   REMARKS
DULUTH         MOCLDY    34  26  72 N6        30.16S WCI  29
ELY            CLOUDY    36  25  64 CALM      30.18S
HIBBING        CLOUDY    35  23  61 N3        30.18S
EVELETH        PTCLDY    37  25  62 N5        30.19S
DULUTH HARBOR  CLEAR     39  30  70 CALM      30.19S
TWO HARBORS    PTCLDY    36  23  60 N5        30.16S
SILVER BAY     MOCLDY    32  25  74 CALM      30.16F
G MARAIS ARPRT PTCLDY    30  25  80 N6        30.14S WCI  24
$$
MNZ029>031-032-039>041-046>048-054>057-064-100800-
   West Central Minnesota

CITY           SKY/WX    TMP DP  RH WIND       PRES   REMARKS
FERGUS FALLS   PTCLDY    43  27  52 NE7       30.13S
WHEATON        MOCLDY    45  25  45 N7        30.17S
MORRIS         MOCLDY    45  21  39 E14       30.14S
ALEXANDRIA     CLOUDY    43  29  57 E12       30.16R
ELBOW LAKE     FAIR      44  30  57 E5        30.16R
WADENA         PTCLDY    37  27  65 NE5       30.17S
GLENWOOD       MOCLDY    43  28  56 E13       30.15R
APPLETON       MOCLDY    46  25  42 NE10      30.12R
BENSON         MOCLDY    45  28  53 E7        30.15R
ORTONVILLE     MOCLDY    45  28  53 NE9       30.12S
MADISON        MOCLDY    50  27  40 NE13      30.12S
WILLMAR        FAIR      46  28  49 E14       30.16R
$$
MNZ033>034-036-042>043-049>051-058-059-100800-
   Central Minnesota

CITY           SKY/WX    TMP DP  RH WIND       PRES   REMARKS
ST CLOUD       PTCLDY    40  27  59 NE6       30.15R
SAUK CENTRE    CLOUDY    42  28  57 NE10      30.16R
PAYNESVILLE    CLEAR     41  30  65 NE6       30.15R
AITKIN         CLOUDY    30  27  86 CALM      30.18F
PINE RIVER     CLOUDY    39  28  65 CALM      30.21S
BRAINERD       PTCLDY    38  26  62 NE5       30.18S
STAPLES        PTCLDY    41  28  60 CALM      30.18R
LONG PRAIRIE   MOCLDY    41  28  60 NE6       30.16S
LITTLE FALLS   CLOUDY    41  25  52 NE3       30.17R
CAMP RIPLEY    PTSUNNY   41  28  61 NE6       30.18S
LITCHFIELD     MOCLDY    45  30  57 NE8       30.14R
BUFFALO        PTCLDY    42  28  58 MISG      30.14S
MAPLE LAKE     PTCLDY    42  30  62 NE8       30.15S
HUTCHINSON     PTCLDY    44  30  57 NE10      30.13S
$$
MNZ037-044-045-052-053-100800-
   East Central Minnesota

CITY           SKY/WX    TMP DP  RH WIND       PRES   REMARKS
PRINCETON      CLOUDY    43  28  56 NE6       30.16S
MORA           MOCLDY    37  28  70 NE3       30.18S
CAMBRIDGE      MOCLDY    43  27  52 NE3       30.16R
RUSH CITY      CLOUDY    41  26  55 NE8       30.17R
MOOSE LAKE     PTCLDY    32  28  86 CALM      30.16S
CLOQUET        CLEAR     27  23  86 CALM      30.16S
$$
MNZ071>073-080-081-089-090-097-098-100800-
   Southwest Minnesota

CITY           SKY/WX    TMP DP  RH WIND       PRES   REMARKS
MONTEVIDEO     MOCLDY    48  21  34 E13       30.11R
GRANITE FALLS  CLOUDY    50  28  42 NE14G21   30.11R
CANBY          CLOUDY    48  26  41 W7        30.12S
MARSHALL       MOCLDY    48  32  53 NW12      30.09S
REDWOOD FALLS  CLOUDY    47  25  42 NE9       30.11R
OLIVIA         MOCLDY    46  27  46 E8        30.11S
PIPESTONE        N/A     48  32  53 NW6       30.11S
WINDOM         MOCLDY    45  34  65 CALM      30.08F
WORTHINGTON    CLOUDY    49  33  54 NW10      30.10S
JACKSON        CLOUDY    46  32  57 NW6       30.10R
TRACY          CLOUDY    50  27  40 W3        30.09S
SLAYTON        MOCLDY    46  29  52 W8        30.10F
$$
MNZ065>067-074>077-082>085-091>093-100800-
   South Central Minnesota

CITY           SKY/WX    TMP DP  RH WIND       PRES   REMARKS
MANKATO        MOCLDY    47  27  45 E8        30.09S
NEW ULM        CLOUDY    46  25  42 E7        30.10R
ST JAMES       CLOUDY    50  25  37 E6        30.09R
FAIRMONT       MOCLDY    49  24  37 E5        30.09R
GLENCOE        MOCLDY    44  28  52 NE5       30.11S
FARIBAULT      MOCLDY    46  27  46 NE6       30.10S
OWATONNA       MOCLDY    46  27  46 NE8       30.09R
WASECA         MOCLDY    46  27  46 E7        30.10S
ALBERT LEA     CLOUDY    46  28  49 NE7       30.08R
$$
MNZ078>079-086>088-094>096-100800-
   Southeast Minnesota

CITY           SKY/WX    TMP DP  RH WIND       PRES   REMARKS
ROCHESTER      MOCLDY    44  24  45 NE10      30.08R
RED WING       PTCLDY    43  25  49 E3        30.11R
STANTON        PTCLDY    41  27  57 NE6       30.10S
DODGE CENTER   MOCLDY    45  23  42 NE6       30.09R
WINONA         PTCLDY    46  30  53 CALM      30.10R
AUSTIN         CLOUDY    46  27  46 NE7       30.07R
PRESTON        PTCLDY    43  27  53 NE9       30.07S
$$
ABBREVIATIONS USED IN REMARKS
   TC - TEMPERATURES IN CELSIUS
  WCI - WIND CHILL INDEX
   HX - HEAT INDEX
  VSB - VISIBILITY
$$



USA.gov is the U.S. government's official web portal to all federal, state and local government web resources and services.